San Jose, Costa Rica

10:06 AM CST on July 24, 2017 (GMT -0600)
Juan Santamaria International

Weather History for MROC - February, 2013

Change the Weather History Date:

Tuesday, February 5, 2013

  Actual Average Record
Temperature  
Mean Temperature 76 °F -  
Max Temperature 86 °F 81 °F 86 °F (2003)
Min Temperature 65 °F 64 °F 62 °F (1997)
Cooling Degree Days 10    
Growing Degree Days 26 (Base 50)    
Moisture  
Dew Point 56 °F    
Average Humidity 54    
Maximum Humidity 94    
Minimum Humidity 23    
Precipitation  
Precipitation 0.00 in 0.01 in - ()
Sea Level Pressure  
Sea Level Pressure 29.96 in    
Wind  
Wind Speed 9 mph ()    
Max Wind Speed 17 mph    
Max Gust Speed 24 mph    
Visibility 8.4 miles    
Events      
Averages and records for this station are not official NWS values.
T = Trace of Precipitation, MM = Missing Value Source: Averaged Metar Reports

Daily Weather History Graph

Daily Weather History Graph

Search for Another Location

Airport or City:

Trip Planner

Search our weather history database for the weather conditions in past years. The results will help you decide how hot, cold, wet, or windy it might be!

Date:

Astronomy

Feb. 05, 2013 Rise Set
Actual Time 5:58 AM CST 5:43 PM CST
Civil Twilight 5:37 AM CST 6:04 PM CST
Nautical Twilight 5:11 AM CST 6:30 PM CST
Astronomical Twilight 4:46 AM CST 6:55 PM CST
Moon 1:21 AM CST (2/5) 1:18 PM CST (2/5)
Length of Visible Light 12h 27m
Length of Day
11h 44m
Waning Crescent, 26% of the Moon is Illuminated
Feb 5
Waning Crescent
Feb 10
New
Feb 17
First Quarter
Feb 25
Full
Mar 4
Last Quarter

Hourly Weather History & Observations

Time (CST) Temp. Heat Index Dew Point Humidity Pressure Visibility Wind Dir Wind Speed Gust Speed Precip Events Conditions
12:00 AM 69 °F - 55 °F 51% 29.83 in 12 mi East 9.2 mph - -  
12:00 AM 68.0 °F - 55.4 °F 64% 30.01 in 6.2 mi East 9.2 mph - N/A   Partly Cloudy
1:00 AM 68.0 °F - 53.6 °F 60% 29.99 in - East 8.1 mph - N/A   Clear
2:00 AM 69.8 °F - 51.8 °F 53% 29.97 in - East 6.9 mph 20.7 mph N/A   Clear
3:00 AM 67 °F - 53 °F 50% 29.81 in 12 mi East 9.2 mph - -  
3:00 AM 68.0 °F - 53.6 °F 60% 29.96 in - East 9.2 mph - N/A   Clear
4:00 AM 66.2 °F - 53.6 °F 64% 29.96 in - East 8.1 mph - N/A   Clear
5:00 AM 68.0 °F - 53.6 °F 60% 29.98 in - ESE 11.5 mph - N/A   Clear
6:00 AM 68.0 °F - 53.6 °F 60% 30.00 in - East 8.1 mph - N/A   Clear
7:00 AM 69.8 °F - 53.6 °F 56% 30.03 in - ENE 6.9 mph - N/A   Clear
8:00 AM 73.4 °F - 53.6 °F 50% 30.04 in - East 6.9 mph - N/A   Clear
9:00 AM 78.8 °F - 51.8 °F 39% 30.05 in - ESE 12.7 mph - N/A   Clear
10:00 AM 80.6 °F - 50.0 °F 34% 30.04 in - East 11.5 mph 24.2 mph N/A   Clear
11:00 AM 82.4 °F - 51.8 °F 35% 30.03 in - East 12.7 mph 24.2 mph N/A   Clear
12:00 PM 84 °F - 52 °F 23% 29.83 in 12 mi ESE 10.4 mph - -   Scattered Clouds
12:00 PM 84.2 °F - 51.8 °F 33% 30.00 in 6.2 mi ESE 10.4 mph - N/A   Partly Cloudy
1:00 PM 84.2 °F 82.8 °F 53.6 °F 35% 29.98 in 6.2 mi East 11.5 mph - N/A   Partly Cloudy
2:00 PM 84.2 °F 82.8 °F 53.6 °F 35% 29.95 in 6.2 mi East 9.2 mph - N/A   Scattered Clouds
3:00 PM 82 °F - 54 °F 28% 29.78 in 12 mi SE 8.1 mph - -   Scattered Clouds
3:00 PM 82.4 °F 81.4 °F 53.6 °F 37% 29.95 in 6.2 mi SE 8.1 mph - N/A   Scattered Clouds
3:10 PM 80.6 °F 81.8 °F 62.6 °F 54% 29.95 in 6.2 mi SSW 10.4 mph - N/A   Scattered Clouds
4:00 PM 78.8 °F - 64.4 °F 61% 29.95 in 6.2 mi SW 15.0 mph - N/A   Mostly Cloudy
5:00 PM 78.8 °F - 64.4 °F 61% 29.96 in 6.2 mi SW 17.3 mph - N/A   Partly Cloudy
6:00 PM 72 °F - 65 °F 74% 29.85 in 12 mi WSW 12.7 mph - -   Scattered Clouds
6:00 PM 73.4 °F - 66.2 °F 78% 29.98 in 6.2 mi WSW 12.7 mph - N/A   Partly Cloudy
7:00 PM 71.6 °F - 66.2 °F 83% 30.00 in 6.2 mi WNW 11.5 mph - N/A   Partly Cloudy
8:00 PM 69.8 °F - 55.4 °F 60% 30.02 in - East 11.5 mph - N/A   Clear
9:00 PM 70 °F - 55 °F 50% 29.90 in 12 mi East 8.1 mph - -  
9:00 PM 69.8 °F - 55.4 °F 60% 30.04 in - East 8.1 mph - N/A   Clear
10:00 PM 69.8 °F - 55.4 °F 60% 30.04 in - East 6.9 mph - N/A   Clear
11:00 PM 68.0 °F - 66.2 °F 94% 30.03 in - NE 5.8 mph - N/A   Clear